Orbital Elements
Epoch 2019 July 16.0 TT = JDT 2458680.5
T 2019 July 28.53499 TT Rudenko
q 3.2972418 (2000.0) P Q
n 0.08993032 Peri. 133.98347 +0.97519235 -0.14011139
a 4.9339943 Node 234.80175 +0.08856542 +0.95648255
e 0.3317297 Incl. 12.10577 +0.20286954 +0.25594909
P 11.0
From 611 observations 1997 Nov. 3-2019 Dec. 20, mean residual 0".7.
|